Location: Chicoutimi
(48.4330°N, 71.0670°W)
Time: 14:48:23
(UTC-05:00)

ISS - Visible Passes

Search period start: 21 January 2017 00:00
Search period end: 31 January 2017 00:00
Orbit: 399 x 410 km, 51.6° (Epoch: 22 January)

Date Brightness Start Highest point End Pass type
(mag) Time Alt. Az. Time Alt. Az. Time Alt. Az.
28 Jan -1.0 18:02:40 10° SSE 18:03:45 12° SE 18:03:45 12° SE visible
29 Jan -1.8 18:44:36 10° SW 18:46:35 28° S 18:46:35 28° S visible
30 Jan -1.8 17:52:49 10° SSW 17:55:29 23° SE 17:56:39 19° ESE visible
30 Jan -0.5 19:28:25 10° WSW 19:29:19 17° WSW 19:29:19 17° WSW visible
